Location: *
(54.3767°N, 3.0844°W)
Time: 18:36:52
(UTC+00:00)

Daily predictions for brighter satellites

Satellite Brightness Start Highest point End
(mag) Time Altitude Azimuth Time Altitude Azimuth Time Altitude Azimuth
ASTEX 1 4.0 17:46:18 10° NNE 17:50:52 36° E 17:55:25 10° SSE
Cosmos 332 Rocket 3.8 17:47:13 10° SSW 17:52:03 84° ESE 17:56:58 10° NNE
Cosmos 1726 Rocket 4.3 17:50:36 10° SSE 17:54:28 31° E 17:58:19 10° NNE
Unknown 3.3 17:51:18 10° WSW 17:54:41 69° S 17:58:06 10° E
Cosmos 1242 Rocket 3.3 17:52:12 10° N 17:55:36 33° ENE 17:58:58 10° SE
Cosmos 968 Rocket 3.6 17:52:00 10° NNW 17:57:19 86° WSW 18:02:36 10° SSE
Okean-O 3.1 17:54:28 10° S 17:58:53 67° WSW 18:03:20 10° NNW
FengYun 1-2 T 4.3 17:53:27 10° SSE 17:59:05 71° ENE 18:04:41 10° NNW
CSL-04 Debris 4.3 17:53:49 10° SE 17:59:10 59° ENE 18:04:34 10° NNW
Cosmos 2239 Rocket 4.5 17:53:22 10° N 17:59:33 68° ENE 18:05:40 10° SSE
Unknown 3.1 17:56:51 10° W 17:59:56 64° S 18:03:03 10° ESE
Cosmos 1302 Rocket 4.0 17:59:00 10° SSW 18:04:13 85° ESE 18:09:30 10° NNE
Cosmos 2058 Rocket 4.0 18:00:46 10° SE 18:04:25 27° E 18:08:04 10° NNE
Falcon 9 debris 3.2 18:01:00 10° W 18:04:27 70° S 18:07:41 11° E
Cosmos 1605 Rocket 4.4 17:59:56 10° N 18:05:52 41° ENE 18:11:38 10° SE
Cosmos 1821 Rocket 3.9 17:59:50 10° N 18:05:58 80° ENE 18:12:06 10° SSE
Cosmos 1939 Rocket 3.6 18:02:30 10° SE 18:06:03 32° ENE 18:09:40 10° N
Lacrosse 5 rocket 2.4 18:03:37 10° WNW 18:07:07 39° SW 18:10:46 10° SSE
Ariane Rocket 3.5 18:02:59 10° SE 18:07:39 38° ENE 18:12:22 10° N
Cosmos 2228 3.4 18:03:32 10° SSE 18:07:39 42° E 18:11:47 10° NNE
ATLAS CENTAUR R/B 3.4 18:04:11 10° WNW 18:08:18 26° NNW 18:12:14 10° NE
Unknown 3.7 18:04:52 10° WSW 18:08:32 55° SSE 18:11:49 12° E
Unknown 3.3 18:05:06 10° WSW 18:08:36 70° S 18:11:44 13° E
Unknown 4.0 18:06:52 10° SW 18:10:35 45° SSE 18:13:52 13° E
Unknown 3.9 18:07:49 10° SW 18:11:32 49° SSE 18:14:45 13° E
Cosmos 1503 Rocket 4.4 18:07:07 10° NNW 18:12:18 70° WSW 18:17:26 10° SSE
Cosmos 1844 Rocket 3.0 18:09:02 10° S 18:14:24 47° ESE 18:19:48 10° NE
Cosmos 1992 Rocket 4.2 18:11:18 10° S 18:16:18 48° ESE 18:21:20 10° NE
Nadezhda 3 Rocket 4.0 18:12:05 10° S 18:18:20 73° E 18:24:42 10° NNE
COSMO-SKYMED 1 2.6 18:14:31 10° NNE 18:18:50 56° E 18:23:06 10° S
Cosmos 921 Rocket 3.8 18:15:04 10° SSE 18:19:03 32° ESE 18:23:04 10° NE
Cosmos 1328 3.9 18:16:44 10° N 18:20:42 52° ENE 18:24:35 10° SSE
Cosmos 1934 Rocket 4.0 18:14:24 10° N 18:20:43 70° ENE 18:27:04 10° SSE
Cosmos 1535 Rocket 4.5 18:14:37 10° N 18:20:54 71° ENE 18:27:03 10° SSE
Cosmos 1777 Rocket 4.2 18:16:15 10° NNW 18:21:24 53° NE 18:26:29 10° SE
Cosmos 1908 4.3 18:19:02 10° SE 18:22:10 23° E 18:25:17 10° NE
Resurs 01 Rocket 3.6 18:21:45 11° ENE 18:22:45 11° NE 18:24:13 10° NNE
YAOGAN 6 2.7 18:20:15 10° SSE 18:23:56 84° WSW 18:27:37 10° NNW
CZ-4 R/B 1.6 18:20:45 10° SSE 18:24:56 79° WSW 18:29:11 10° NNW
Cosmos 1470 3.2 18:21:04 10° SSW 18:25:02 67° WNW 18:29:02 10° N
Unknown 4.4 18:21:49 10° SW 18:25:38 36° SSE 18:28:20 17° E
Cosmos 839 Rocket 4.1 18:20:37 10° NW 18:26:47 86° SW 18:33:29 10° SE
Unknown 4.5 18:23:17 10° SW 18:27:03 35° SSE 18:29:39 17° E
Unknown 4.4 18:24:57 10° SW 18:28:44 35° SSE 18:31:16 18° E
Cosmos 2084 4.2 18:25:16 10° SSW 18:29:24 36° SE 18:32:39 15° ENE
USA 116 3.6 18:26:28 10° NNE 18:29:25 38° E 18:32:25 10° S
Cosmos 1825 Rocket 4.4 18:26:00 10° NNW 18:30:17 55° W 18:34:33 10° S
Cosmos 2278 Rocket 3.4 18:27:03 10° SE 18:30:58 20° E 18:34:55 10° NE
SJ 16-02 3.3 18:28:56 10° N 18:31:12 14° NE 18:32:32 12° ENE
Cosmos 1953 Rocket 3.8 18:27:08 10° NNW 18:31:32 75° W 18:35:53 10° S
H-2A R/B 3.2 18:28:31 15° ESE 18:31:46 26° NE 18:36:09 10° N
Unknown 4.4 18:28:12 10° SW 18:32:01 36° SSE 18:34:27 19° E
Lacrosse 5 1.9 18:27:02 10° WNW 18:32:08 74° NNE 18:35:56 18° E
Unknown 4.4 18:29:53 10° SW 18:33:43 37° SSE 18:36:05 20° E
Cosmos 1844 3.9 18:28:26 10° S 18:33:58 52° ESE 18:39:35 10° NE
Unknown 4.3 18:31:31 10° SW 18:35:22 38° SSE 18:37:41 20° E
HJ-1C 3.9 18:33:05 11° SE 18:36:01 38° ENE 18:39:12 10° N
Unknown 4.3 18:33:11 10° SW 18:37:02 38° SSE 18:39:17 21° E
Unknown 4.3 18:36:27 10° SW 18:40:20 40° SSE 18:42:28 22° E
Unknown 4.2 18:38:04 10° SW 18:41:58 41° SSE 18:44:05 23° E
COBE Rocket 4.2 18:36:47 10° NNE 18:42:00 79° WNW 18:47:08 10° SSW
Unknown 4.1 18:38:19 10° SW 18:42:15 43° SSE 18:44:23 23° E
Cosmos 304 Rocket 4.1 18:38:01 10° SW 18:42:49 69° WNW 18:47:38 10° NNE
Unknown 4.1 18:39:54 10° SW 18:43:51 43° SSE 18:45:56 24° E
ATLAS 5 CENTAUR R/B 1.6 18:39:50 10° SW 18:44:12 73° SE 18:48:44 12° NE
Cosmos 292 Rocket 4.3 18:41:06 10° S 18:45:23 35° ESE 18:49:44 10° NE
Unknown 4.3 18:43:21 10° W 18:45:39 26° SSW 18:47:05 16° SSE
Unknown 4.2 18:42:57 10° SW 18:46:53 42° SSE 18:48:48 25° E
CZ-2C R/B 4.4 18:45:55 20° E 18:48:21 26° NE 18:53:02 10° N
Cosmos 1606 Rocket 3.8 18:45:24 10° SSW 18:49:46 73° WNW 18:54:10 10° N
Unknown 4.1 18:46:16 10° SW 18:50:13 44° SSE 18:52:00 27° ESE
Cosmos 2058 3.9 18:47:08 10° N 18:50:45 26° ENE 18:51:27 25° E
Unknown 4.1 18:47:59 10° SW 18:51:56 44° SSE 18:53:41 28° ESE
Unknown 4.1 18:49:33 10° SW 18:53:31 45° SSE 18:55:12 29° ESE
Unknown 4.0 18:51:15 10° SW 18:55:14 46° SSE 18:56:52 29° ESE
Cosmos 1153 Rocket 4.5 18:51:45 10° N 18:57:51 60° ENE 19:03:55 10° SSE
SL-4 R/B 4.4 18:55:59 10° WSW 18:58:09 15° SW 19:00:13 10° S
Unknown 3.9 18:55:02 10° SW 18:58:59 49° SSE 19:00:29 32° ESE
CSL-04 Rocket 4.5 18:53:51 10° S 18:59:18 56° WSW 19:04:43 10° NNW
Cosmos 2263 Rocket 3.7 18:55:01 10° WSW 19:00:10 35° NW 19:05:20 10° NNE
CZ-2D R/B 3.5 18:57:30 10° S 19:01:21 72° WSW 19:05:15 10° NNW
Unknown 4.0 18:57:49 10° SW 19:01:49 48° SSE 19:03:13 33° ESE
NOAA 11 4.2 18:56:47 10° SSE 19:02:15 82° WSW 19:07:44 10° NNW
Cosmos 1898 Rocket 4.4 18:57:44 10° NNW 19:02:28 32° NE 19:04:08 26° E
Unknown 3.9 18:59:29 10° SW 19:03:29 49° SSE 19:04:48 35° ESE
Unknown 3.9 19:01:09 10° SW 19:05:10 50° SSE 19:06:26 36° ESE
Unknown 3.9 19:02:44 10° SW 19:06:46 50° SSE 19:07:58 37° ESE
SKYMED 2 4.3 19:02:36 10° N 19:06:53 56° WNW 19:11:08 10° SSW
Cosmos 1812 Rocket 4.1 19:07:06 32° ESE 19:07:59 35° E 19:12:02 10° NNE
Unknown 3.9 19:04:25 10° SW 19:08:26 51° SSE 19:09:35 38° ESE
Gbstr 26 Del rocket 4.3 19:02:34 10° W 19:08:34 64° SSW 19:12:54 25° ESE
Unknown 3.7 19:06:24 10° WSW 19:10:23 58° SSE 19:11:30 41° ESE
DMSP B5D1-3 4.4 19:05:20 10° NNE 19:10:29 74° ESE 19:15:37 10° S
Cosmos 489 Rocket 4.4 19:04:25 10° S 19:10:30 60° ESE 19:16:36 10° NNE
Cosmos 1833 Rocket 2.6 19:05:58 10° NNW 19:11:37 85° NE 19:15:36 20° SE
Unknown 3.8 19:07:46 10° WSW 19:11:49 52° SSE 19:12:51 41° ESE
Cosmos 1356 3.3 19:09:44 10° SSW 19:13:10 89° WNW 19:16:39 10° NNE
Starlink (trailer) 3.8 19:09:25 10° WSW 19:13:27 53° SSE 19:14:26 42° ESE
Cosmos 1703 4.1 19:10:20 10° NNW 19:14:12 52° W 19:18:01 10° S
Unknown 3.8 19:11:04 10° WSW 19:15:07 54° SSE 19:16:01 43° ESE
Unknown 3.8 19:12:40 10° WSW 19:16:43 55° SSE 19:17:35 45° ESE
YAOGAN 1 4.3 19:12:54 10° SSW 19:16:52 34° W 19:20:52 10° NNW
Cosmos 1953 4.1 19:13:13 10° SW 19:16:57 34° WNW 19:20:43 10° N
Cosmos 1726 2.3 19:13:46 10° SSW 19:17:25 71° WNW 19:21:06 10° N
Cosmos 2061 Rocket 4.4 19:11:44 10° N 19:17:40 41° ENE 19:19:54 31° ESE
ARGOS 3.4 19:15:47 31° ESE 19:18:01 48° ENE 19:23:13 10° N
FALCON 9 DEB 3.2 19:15:57 10° W 19:19:25 63° S 19:19:51 56° SSE
SJ-6B 2.8 19:19:40 50° E 19:20:01 53° ENE 19:23:43 10° N
Cosmos 1461 2.7 19:16:43 10° NW 19:20:46 87° SW 19:22:02 44° SE
Unknown 3.2 19:18:42 10° W 19:22:12 65° S 19:22:33 60° SSE
Cosmos 2084 Rocket 3.6 19:17:53 10° NW 19:22:18 61° NNE 19:23:21 46° E
Unknown 3.7 19:19:15 10° WSW 19:23:19 57° SSE 19:23:56 51° SE
Unknown 3.7 19:19:18 10° WSW 19:23:22 57° SSE 19:23:59 51° SE
Unknown 3.7 19:20:05 10° WSW 19:24:10 58° SSE 19:24:45 51° SE
Cosmos 1076 Rocket 3.4 19:21:02 10° N 19:25:25 68° ENE 19:26:54 40° SSE
Cosmos 2227 Rocket 4.5 19:22:40 10° NW 19:25:54 15° N 19:29:08 10° NNE
ADEOS Rocket 3.8 19:18:54 10° NNE 19:26:15 42° E 19:33:15 10° SSE
COSMOS 2406 4.3 19:22:08 10° NW 19:27:36 45° WSW 19:33:01 10° S
Unknown 3.6 19:24:08 10° WSW 19:28:13 59° SSE 19:28:39 55° SE
Unknown 3.6 19:24:16 10° WSW 19:28:21 59° SSE 19:28:47 55° SE
Cosmos 2082 Rocket 2.1 19:23:35 10° NNW 19:29:22 82° ENE 19:32:05 33° SE
Unknown 3.6 19:26:01 10° WSW 19:30:06 61° SSE 19:30:29 57° SE
Unknown 3.4 19:28:04 10° W 19:31:22 55° SSW 19:31:22 55° SSW
Cosmos 2297 Rocket 4.5 19:28:52 10° NW 19:32:01 15° N 19:35:10 10° NNE
USA 186 3.6 19:34:12 19° N 19:34:12 19° N 19:35:06 10° N
Unknown 3.6 19:29:19 10° WSW 19:33:25 62° SSE 19:33:40 60° SE
Unknown 3.6 19:29:52 10° WSW 19:33:57 61° SSE 19:34:11 60° SSE
Unknown 3.6 19:30:54 10° WSW 19:35:00 62° SSE 19:35:11 61° SSE
Unknown 4.5 19:32:40 10° W 19:35:15 28° SSW 19:35:15 28° SSW
MOS 1 4.4 19:31:07 10° S 19:36:47 74° WSW 19:42:28 10° NNW
Unknown 3.6 19:34:06 10° WSW 19:38:12 62° SSE 19:38:16 62° SSE
FREGAT/IRIS 3.8 19:40:11 39° NW 19:40:11 39° NW 19:42:15 10° NNW
Falcon 9 debris 3.8 19:37:57 10° W 19:40:57 49° SW 19:40:57 49° SW
Unknown 3.6 19:37:30 10° WSW 19:41:33 64° S 19:41:33 64° S
Cosmos 2058 Rocket 4.3 19:38:04 10° SW 19:42:14 43° WNW 19:46:25 10° N
Unknown 3.6 19:39:10 10° WSW 19:43:08 64° S 19:43:08 64° S
SJ-11-01 4.4 19:40:18 22° S 19:43:17 73° WSW 19:48:00 10° NNW
Unknown 3.7 19:40:51 10° WSW 19:44:46 64° S 19:44:46 64° S
Unknown 3.9 19:42:15 10° W 19:45:11 49° SW 19:45:11 49° SW
Unknown 3.6 19:42:42 10° W 19:46:02 63° SW 19:46:02 63° SW
Ariane Rocket 4.2 19:41:46 10° S 19:46:36 43° W 19:51:29 10° NNW
Unknown 3.7 19:42:29 10° WSW 19:46:22 64° SSW 19:46:22 64° SSW
ATLAS CENTAUR R/B 3.2 19:44:39 10° NW 19:48:34 25° N 19:49:26 23° NNE
Unknown 3.6 19:45:09 10° W 19:48:38 66° SW 19:48:38 66° SW
Unknown 3.7 19:45:56 10° W 19:49:17 63° SW 19:49:17 63° SW
Terra 4.2 19:51:08 11° NNE 19:51:08 11° NNE 19:51:42 10° NNE
Unknown 3.8 19:45:46 10° WSW 19:49:31 62° SSW 19:49:31 62° SSW
Unknown 3.8 19:47:31 10° WSW 19:51:12 61° SSW 19:51:12 61° SSW
SPOT 3 Rocket 3.5 19:49:52 36° SSE 19:52:05 84° WSW 19:57:21 10° NNW
Cosmos 1459 Rocket 3.9 19:46:29 10° N 19:52:41 83° ENE 19:55:52 31° SSE
Unknown 3.9 19:49:08 10° WSW 19:52:45 60° SSW 19:52:45 60° SSW
Unknown 3.9 19:50:44 10° WSW 19:54:17 58° SW 19:54:17 58° SW
USA 238 DEB 4.3 19:48:48 10° S 19:53:10 34° SSE 19:53:10 34° SSE
USA 238 4.4 19:48:55 10° S 19:53:11 33° SSE 19:53:11 33° SSE
Unknown 3.9 19:51:18 10° WSW 19:54:51 59° SW 19:54:51 59° SW
Cosmos 921 Rocket 4.4 19:53:01 10° SW 19:57:17 41° WNW 20:01:32 10° NNE
Unknown 4.0 19:53:55 10° WSW 19:57:19 55° SW 19:57:19 55° SW
Resurs 01 Rocket 2.3 19:59:20 44° NNE 19:59:20 44° NNE 20:02:42 10° N
Cosmos 1844 Rocket 3.7 19:53:00 10° WSW 19:58:24 45° NW 20:03:49 10° NNE
In-Cosmos 22 Rocket 4.0 19:53:34 10° NNW 19:58:57 85° ENE 20:00:09 56° SSE
Unknown 4.2 19:57:16 10° WSW 20:00:33 52° SW 20:00:33 52° SW
Cosmos 1727 Rocket 4.0 19:56:38 10° SSW 20:02:49 78° WNW 20:09:02 10° N
Unknown 4.2 19:58:52 10° WSW 20:02:06 51° SW 20:02:06 51° SW
Cosmos 1937 Rocket 3.6 19:58:57 10° NNW 20:03:47 57° NE 20:03:47 57° NE
Cosmos 1802 Rocket 3.9 19:57:50 10° N 20:04:19 85° ENE 20:06:46 42° SSE
Unknown 4.3 20:00:47 10° WSW 20:03:59 50° WSW 20:03:59 50° WSW
Cosmos 2151 3.8 20:01:00 10° N 20:03:57 41° N 20:03:57 41° N
Unknown 4.3 20:02:11 10° WSW 20:05:17 47° WSW 20:05:17 47° WSW
Unknown 4.4 20:03:53 10° WSW 20:06:55 46° WSW 20:06:55 46° WSW
Cosmos 2084 4.0 20:04:23 10° WSW 20:08:50 58° NNW 20:09:13 55° N
Okean 3 Rocket 3.8 20:04:43 10° N 20:08:40 66° N 20:08:40 66° N
H-2A R/B 2.2 20:09:09 46° S 20:10:44 73° WSW 20:16:10 10° NNW
SJ 16-02 2.2 20:06:26 10° NNW 20:09:32 40° N 20:09:32 40° N
Cosmos 2173 Rocket 4.1 20:07:11 10° NNW 20:13:30 74° W 20:16:35 32° S
SL-08 RB Rocket 3.9 20:14:54 67° NNW 20:14:54 67° NNW 20:18:52 10° NNW
Cosmos 2278 Rocket 2.1 20:08:37 10° SSW 20:14:18 87° ESE 20:16:57 34° NE
Cosmos 990 Rocket 3.9 20:09:24 10° NNW 20:14:28 81° NNE 20:14:28 81° NNE
Lacrosse 5 2.3 20:10:08 10° WNW 20:15:02 51° SW 20:15:08 51° SSW
Cosmos 1864 Rocket 4.3 20:10:05 10° N 20:16:15 73° ENE 20:16:42 70° ESE
GEOS 3 Rocket 4.3 20:16:39 41° NNE 20:16:47 41° NNE 20:21:36 10° NW
Spot 2 Rocket 4.2 20:21:16 44° NNE 20:21:16 44° NNE 20:25:01 10° N
Resurs 1-3 4.2 20:23:16 54° NW 20:23:16 54° NW 20:26:46 10° NNW
MetOp-A 4.0 20:23:26 88° WSW 20:23:26 88° WSW 20:28:51 10° NNW
Cosmos 2123 Rocket 4.5 20:25:17 45° NE 20:25:17 45° NE 20:29:50 10° NNE
CZ-2C R/B 3.3 20:26:59 70° S 20:27:40 81° WSW 20:33:31 10° NNW
Cosmos 2058 4.0 20:23:50 10° NNW 20:27:41 42° W 20:27:41 42° W
ATLAS 5 CENTAUR R/B 3.0 20:24:53 10° W 20:29:14 39° NNW 20:30:17 35° N
Cosmos 1725 Rocket 3.8 20:23:44 10° N 20:30:02 87° E 20:30:30 78° SSE
Cosmos 2233 Rocket 4.1 20:30:23 10° N 20:35:58 63° NE 20:35:58 63° NE
Cosmos 1000 Rocket 4.5 20:36:07 44° SSW 20:38:13 78° WNW 20:44:31 10° N
Cosmos 1238 Rocket 4.3 20:34:53 10° N 20:40:36 57° NE 20:40:36 57° NE
Cosmos 1898 Rocket 4.0 20:39:43 10° NNW 20:44:25 57° W 20:44:25 57° W
ARGOS 4.4 20:57:18 33° WSW 20:58:25 36° W 21:03:26 10° NNW
ADEOS Rocket 3.9 21:04:21 10° NNE 21:12:01 61° WNW 21:19:21 10° SW
Cosmos 2227 Rocket 4.2 21:08:17 10° NNW 21:12:05 19° NNE 21:12:05 19° NNE
Cosmos 2082 Rocket 4.0 21:08:28 10° NW 21:12:50 23° WSW 21:13:57 22° WSW
Cosmos 2297 Rocket 4.1 21:14:13 10° NNW 21:17:47 20° NNE 21:17:47 20° NNE
Terra 4.2 21:30:01 18° N 21:30:01 18° N 21:31:16 10° N
ATLAS CENTAUR R/B 4.0 21:23:59 10° NW 21:25:37 20° NW 21:25:37 20° NW
Resurs 01 Rocket 4.2 21:36:55 19° WNW 21:36:55 19° WNW 21:38:45 10° NW
SJ 16-02 4.2 21:45:37 10° NW 21:46:32 14° WNW 21:46:32 14° WNW
Cosmos 2278 Rocket 3.9 21:54:12 10° W 22:03:54 11° NNE 22:04:02 10° NNE
ATLAS 5 CENTAUR R/B 4.5 22:10:37 10° WNW 22:11:49 16° NW 22:11:49 16° NW
